FENGYUN 1C DEB

Satellite information

Favourite Embed

Satellite Type and Status

DEBRISIN ORBIT

Key statistics

Satellite FENGYUN 1C DEB at a glance.

Uptime

9715

Days in orbit

Revolutions

≈ 14.2

Per day

Orbit

SSO

Sun Synchronous Orbit

Inclination

98.8

Latest

Satellite identification and parameters

Extended collection of information and parameters for FENGYUN 1C DEB.

Object identification

Identified? True

Debris? True

Object name: FENGYUN 1C DEB

International designator: 1999-025BCV

Object number (NORAD): 31003

Object ID (CCSDS): 31003

Country: PEOPLES REPUBLIC OF CHINA (PRC)

Current information (Y/N): Y

RCS size: SMALL

Orbital parameters

Period: 101.075 minutes

Inclination: 98.8428 deg

SMA: 7187.671 km

Apoapsis: 839.474 km

Periapsis: 779.598 km

RAAN: 62.9537 deg

Eccentricy: 0.00416518

Argument of periapsis: 215.9859 deg

Mean anomaly: 143.8513 deg

Mean motion: 14.24690255 rev/day

Mean motion (dot): 0.00005104 rev/day2

B* drag term: 0.0021922587 1/REarth

Two-line elements (TLE)

Creation date: Dec. 12, 2025, 10:14 a.m.

Reference frame: TEME

Reference center: EARTH

Epoch: Dec. 12, 2025, 3:57 a.m. UTC

TLE line 0: 0 FENGYUN 1C DEB

TLE line 1: 1 31003U 99025BCV 25346.16523692 .00005104 00000-0 21923-2 0 9995

TLE line 2: 2 31003 98.8428 62.9537 0041652 215.9859 143.8513 14.24690255965011

Live tracking on map

Real-time ground track for satellite FENGYUN 1C DEB.

In-orbit conjunctions

A list of the most updated potential collisions computed for object FENGYUN 1C DEB.

Target Orbit TCA Probability of collision Miss distance Type
RADARSAT SSO 2025-07-17 02:31:58 0.0001316026 516.0 (m) PAYLOAD
THOR BURNER 2 R/B SSO 2025-06-24 10:18:38 0.0001068352 402.0 (m) ROCKET BODY
THOR AGENA D R/B SSO 2025-01-13 12:36:10 0.000145332 239.0 (m) ROCKET BODY
CZ-6A DEB SSO 2024-09-26 10:11:41 0.0005518818 41.0 (m) DEBRIS

Associated space launch

Chinese polar orbiting meteorological satellite

FENGYUN 1C DEB was lifted into orbit during the mission ‘Long March 4B | Feng Yun 1C’, on board a Long March 4B space rocket.

The launch took place on May 10, 1999, 1:33 a.m. from Launch Complex 7.

For more information about the launch, click the button.

Launch to space Long March 4B | Feng Yun 1C
Long March 4B | Feng Yun 1C

Agency: N/A

Status: Launch Successful

Launch date: May 10, 1999, 1:33 a.m. UTC

Rocket: Long March 4B

Launch pad: Launch Complex 7

Location: Taiyuan Satellite Launch Center, People's Republic of China

...

Latest news about this satellite

There are no fresh news available about this satellite. Check back as we update our databases every day.


Newsletter sign-up

Weekly statistics, charts and insights to help you stay on top of the space industry.